Home   Weather   Ponce   Past weeks

Flag for Puerto Rico Past Weather in Ponce, Puerto Rico — Yesterday and Last 2 Weeks

Now
81 °F

Scattered clouds.


Feels Like: 83 °F
Forecast: 67 / 86 °F
Wind: 14 mph from Northeast

Location: Aquadilla / Borinquen

Current Time: Feb 22, 2017 at 3:47:15 pm

Latest Report: Feb 22, 2017 at 2:50 pm


Visibility: 10 mi

Pressure: 29.86 "Hg

Humidity: 62%

Dew Point: 66 °F

Location of PonceLocation

Past Weather in Ponce — Graph

°F

Ponce Temperature Yesterday

Maximum temperature yesterday: 79 °F (at 10:50 am)
Minimum temperature yesterday: 73 °F (at 6:50 am)
Average temperature yesterday: 76 °F

High & Low Weather Summary for the Past Weeks

 TemperatureHumidityPressure
High84 °F (Feb 20, 9:50 am)100% (Feb 8, 10:50 pm)30.17 "Hg (Feb 8, 10:50 pm)
Low66 °F (Feb 15, 7:50 am)54% (Feb 16, 10:50 am)29.88 "Hg (Feb 21, 3:50 pm)
Average76 °F75%30.04 "Hg
* Reported Feb 7 1:50 pm — Feb 22 1:50 pm, Ponce, Weather by CustomWeather, © 2017

Note: Actual official high and low records may vary slightly from our data, if they occured in-between our weather recording intervals... More about our weather records

Advertising

Ponce Weather History for the Previous 24 Hours

Scroll right to see more
 ConditionsComfort  
Time TempWeatherWind HumidityBarometerVisibility
1:50 pm
Wed, Feb 22
81 °FScattered clouds.12 mph62%29.88 "Hg10 mi
12:50 pm81 °FScattered clouds.13 mph58%29.89 "Hg10 mi
11:50 am79 °FScattered clouds.13 mph61%29.91 "Hg10 mi
10:50 am81 °FScattered clouds.9 mph58%29.93 "Hg10 mi
9:50 am77 °FScattered clouds.8 mph65%29.94 "Hg10 mi
8:50 am75 °FScattered clouds.8 mph69%29.93 "Hg10 mi
7:50 am72 °FPassing clouds.3 mph78%29.90 "Hg10 mi
6:50 am72 °FPassing clouds.8 mph73%29.88 "Hg10 mi
12:50 am73 °FClear.9 mph69%29.91 "Hg10 mi
11:50 pm
Tue, Feb 21
73 °FPassing clouds.8 mph74%29.92 "Hg10 mi
10:50 pm73 °FPartly cloudy.12 mph69%29.92 "Hg10 mi
9:50 pm75 °FMostly cloudy.8 mph69%29.92 "Hg10 mi
8:50 pm75 °FOvercast.9 mph69%29.91 "Hg10 mi
7:50 pm73 °FPartly cloudy.8 mph74%29.90 "Hg10 mi
6:50 pm73 °FPartly sunny.10 mph74%29.89 "Hg10 mi
5:50 pm75 °FPartly sunny.7 mph65%29.88 "Hg10 mi
4:50 pm77 °FBroken clouds.9 mph65%29.88 "Hg10 mi
3:50 pm79 °FBroken clouds.9 mph61%29.88 "Hg10 mi
Weather by CustomWeather, © 2017

See weather overviewHow to use our weather pages